Regional Weather Roundup
Issued by NWS

Home | Current Version | Previous Version | Text Only | Print | Product List | Glossary Off
Versions: 1 2 3 4 5 6 7 8 9 10 11 12 13 14 15 16 17 18 19 20 21 22 23 24 25 26 27 28 29 30 31 32 33 34 35 36 37 38 39 40 41 42 43 44 45 46 47 48 49 50

000
ASUS43 KOAX 281610
RWRNE

WEATHER ROUNDUP FOR NEBRASKA
NATIONAL WEATHER SERVICE OMAHA NE
1100 AM CDT TUE JUL 28 2015

NOTES: SATELLITE DATA IS BEING USED TO AUGMENT CLOUD COVER ABOVE
       12000 FEET.
       "FAIR" INDICATES FEW OR NO CLOUDS BELOW 12,000 FEET WITH NO
       SIGNIFICANT WEATHER AND/OR OBSTRUCTIONS TO VISIBILITY.

  * THESE STATIONS DO NOT REPORT WEATHER SUCH AS RAIN...SNOW OR FOG.

NEZ001>004-019>022-054>056-281700-
NEBRASKA PANHANDLE

CITY           SKY/WX    TMP DP  RH WIND       PRES   REMARKS
SCOTTSBLUFF    SUNNY     71  43  36 NW13      30.09S
ALLIANCE       SUNNY     70  41  34 NW17G23   30.07S
CHADRON        SUNNY     68  46  45 W14G21    30.07S
KIMBALL        SUNNY     71  29  21 NW24G31   30.10S
SIDNEY         SUNNY     73  32  22 NW25G33   30.11S
$$

NEZ057>060-069>072-079>082-281700-
SOUTHWEST NEBRASKA

CITY           SKY/WX    TMP DP  RH WIND       PRES   REMARKS
NORTH PLATTE   SUNNY     76  53  44 N15G25    30.01R
IMPERIAL       SUNNY     78  42  27 N21       30.04R
LEXINGTON      MOSUNNY   75  51  42 N21G30    29.97R
MCCOOK         SUNNY     79  50  36 N18       29.99R
OGALLALA       SUNNY     75  44  33 N18       30.06R
$$

NEZ005>010-023>029-035>040-094-281700-
NORTH CENTRAL NEBRASKA

CITY           SKY/WX    TMP DP  RH WIND       PRES   REMARKS
VALENTINE      SUNNY     73  47  39 NW16G28   30.00R
AINSWORTH      SUNNY     72  48  42 N16G24    30.01R
BROKEN BOW     SUNNY     74  50  42 N18G30    29.98R
O`NEILL        SUNNY     72  57  59 NW21      29.96R
ORD            MOSUNNY   75  56  51 N21G29    29.93R
THEDFORD       SUNNY     74  56  51 N14       30.03R
$$

NEZ041-046>049-061>064-073>077-083>087-281700-
SOUTH CENTRAL NEBRASKA

CITY           SKY/WX    TMP DP  RH WIND       PRES   REMARKS
GRAND ISLAND   TSTM      74  68  81 NW17G25   29.89R
AURORA         CLOUDY    80  75  84 N16G22    29.87R
HASTINGS       CLOUDY    78  68  71 N20G25    29.88R
HEBRON         SUNNY     86  67  52 SW9G16    29.83R
HOLDREGE       PTSUNNY   72  59  63 N21G29    29.93R
KEARNEY *      PTSUNNY   75  57  53 N30G36    29.92R
YORK           MOSUNNY   84  73  70 W5        29.85R HX  91
$$

NEZ011>018-030>034-042>045-281700-
NORTHEAST NEBRASKA

CITY           SKY/WX    TMP DP  RH WIND       PRES   REMARKS
NORFOLK        PTSUNNY   78  73  84 SW5       29.87R
ALBION         CLOUDY    69  64  82 N15G21    29.90R
BLAIR          PTSUNNY   77  70  79 SE15      29.85S
COLUMBUS *     PTSUNNY   75  70  83 S7        29.87R
FREMONT        PTSUNNY   79  72  80 SE15      29.86R
TEKAMAH        CLOUDY    77  72  84 SE14G21   29.84R
WAYNE          PTSUNNY   75  71  87 SW13      29.87R
$$

NEZ050>053-065>068-078-088>093-281700-
SOUTHEAST NEBRASKA

CITY           SKY/WX    TMP DP  RH WIND       PRES   REMARKS
LINCOLN        SUNNY     85  74  69 E9        29.85S HX  92
OMAHA EPPLEY   PTSUNNY   79  71  76 SE16G24   29.85F
BEATRICE       SUNNY     86  71  62 S9        29.84F HX  91
FALLS CITY     SUNNY     88  74  63 SW6       29.87R HX  96
NEBRASKA CITY  MOSUNNY   83  73  72 E9        29.87F
PLATTSMOUTH    MOSUNNY  N/A N/A N/A E15       29.86F
$$

NEZ044-045-051>053-067-281700-
OMAHA AREA

CITY           SKY/WX    TMP DP  RH WIND       PRES   REMARKS
OMAHA EPPLEY   PTSUNNY   79  71  76 SE16G24   29.85F
BLAIR          PTSUNNY   77  70  79 SE15      29.85S
FREMONT        PTSUNNY   79  72  80 SE15      29.86R
MILLARD        MOSUNNY   80  73  80 SE12G21   29.85F
OFFUTT AFB     PTSUNNY   80  73  80 E13       29.85F
PLATTSMOUTH    MOSUNNY  N/A N/A N/A E15       29.86F
WAHOO          FAIR      80  74  83 SE15      29.85S
$$


USA.gov is the U.S. government's official web portal to all federal, state and local government web resources and services.